User: anonymous   Login
Location: Unspecified
(0.0000°N, 0.0000°E)
Time: 17:01:32
(UTC+00:00)
Language:

M3MSAT - Orbit

View from above orbital plane
View from above orbital plane
View from above satellite
View from above satellite

Ground track
Ground track

The orbit data is extracted from the following two-line orbital elements,

1 41605U 16040G   18175.14411361  .00000578  00000-0  29406-4 0  9995
2 41605  97.4129 237.4606 0011424 210.3459 149.7116 15.20678190111195
Epoch (UTC): 24 June 2018 03:27:31
Eccentricity: 0.0011424
inclination: 97.4129°
perigee height: 496 km
apogee height: 511 km
right ascension of ascending node: 237.4606°
argument of perigee: 210.3459°
revolutions per day: 15.20678190
mean anomaly at epoch: 149.7116°
orbit number at epoch: 11119

The dashed part of the orbit path shows where the satellite is in the earth's shadow,  

DLR